Harbor Springs, MI

4:20 AM EDT on May 26, 2018 (GMT -0400)
Harbor Springs

Weather History for KMGN - December, 2013

Change the Weather History Date:

Saturday, December 7, 2013

  Actual Average (KPLN) Record (KPLN)
Temperature  
Mean Temperature 19 °F -  
Max Temperature 20 °F 31 °F 47 °F (1951)
Min Temperature 18 °F 17 °F -14 °F (1970)
Degree Days  
Heating Degree Days 46    
Moisture  
Dew Point 9 °F    
Average Humidity 66    
Maximum Humidity 73    
Minimum Humidity 58    
Precipitation  
Precipitation 0.00 in - - ()
Sea Level Pressure  
Sea Level Pressure 30.43 in    
Wind  
Wind Speed 12 mph (West)    
Max Wind Speed 18 mph    
Max Gust Speed 26 mph    
Visibility 10 miles    
Events Snow    
Averages and records for this station are not official NWS values.
T = Trace of Precipitation, MM = Missing Value Source: NWS Daily Summary

Daily Weather History Graph

Daily Weather History Graph

Search for Another Location

Airport or City:

Astronomy

Dec. 07, 2013 Rise Set
Actual Time 8:05 AM EST 4:56 PM EST
Civil Twilight 7:32 AM EST 5:30 PM EST
Nautical Twilight 6:54 AM EST 6:07 PM EST
Astronomical Twilight 6:18 AM EST 6:43 PM EST
Moon 11:40 AM EST (12/7) 10:48 PM EST (12/7)
Length of Visible Light 9h 58m
Length of Day
8h 50m
Waxing Crescent, 29% of the Moon is Illuminated
Dec 7
Waxing Crescent
Dec 9
First Quarter
Dec 17
Full
Dec 25
Last Quarter
Jan 1
New

Hourly Weather History & Observations

Time (EST) Temp. Windchill Dew Point Humidity Pressure Visibility Wind Dir Wind Speed Gust Speed Precip Events Conditions
12:15 AM 19.8 °F 9.1 °F 10.0 °F 66% 30.32 in 10.0 mi WNW 9.2 mph 16.1 mph N/A   Overcast
12:35 AM 19.4 °F 8.6 °F 9.5 °F 65% 30.32 in 10.0 mi WNW 9.2 mph - N/A   Overcast
12:54 AM 19.4 °F 9.5 °F 9.9 °F 66% 30.32 in 10.0 mi West 8.1 mph - N/A Snow Light Snow
1:15 AM 19.4 °F 7.2 °F 10.2 °F 68% 30.32 in 10.0 mi WNW 11.5 mph - N/A Snow Light Snow
1:35 AM 19.6 °F 8.1 °F 10.9 °F 69% 30.32 in 10.0 mi West 10.4 mph 17.3 mph N/A Snow Light Snow
1:54 AM 19.4 °F 9.5 °F 10.4 °F 68% 30.32 in 10.0 mi West 8.1 mph 18.4 mph N/A   Overcast
2:15 AM 19.8 °F 7.1 °F 11.1 °F 69% 30.33 in 10.0 mi WNW 12.7 mph 20.7 mph N/A Snow Light Snow
2:35 AM 19.4 °F 7.2 °F 10.8 °F 69% 30.33 in 10.0 mi West 11.5 mph 16.1 mph N/A Snow Light Snow
2:54 AM 19.8 °F 8.3 °F 11.5 °F 70% 30.34 in 10.0 mi WNW 10.4 mph - N/A Snow Light Snow
3:15 AM 19.4 °F 7.2 °F 11.3 °F 71% 30.34 in 10.0 mi West 11.5 mph 20.7 mph N/A Snow Light Snow
3:35 AM 19.0 °F 6.8 °F 11.3 °F 72% 30.35 in 7.0 mi West 11.5 mph - N/A Snow Light Snow
3:54 AM 18.9 °F 6.5 °F 11.3 °F 72% 30.35 in 7.0 mi West 11.5 mph - N/A Snow Light Snow
4:15 AM 18.5 °F 4.9 °F 11.1 °F 73% 30.36 in 5.0 mi West 13.8 mph 20.7 mph N/A Snow Light Snow
4:35 AM 18.5 °F 4.9 °F 10.8 °F 72% 30.37 in 10.0 mi West 13.8 mph 20.7 mph N/A Snow Light Snow
4:54 AM 18.7 °F 7.0 °F 9.7 °F 68% 30.37 in 10.0 mi West 10.4 mph 18.4 mph N/A   Overcast
5:15 AM 18.5 °F 6.8 °F 10.8 °F 72% 30.38 in 7.0 mi West 10.4 mph 17.3 mph N/A Snow Light Snow
5:35 AM 18.5 °F 6.1 °F 10.2 °F 70% 30.38 in 10.0 mi West 11.5 mph 17.3 mph N/A   Overcast
5:54 AM 18.5 °F 4.9 °F 9.9 °F 69% 30.39 in 10.0 mi West 13.8 mph 18.4 mph N/A   Overcast
6:15 AM 18.5 °F 3.3 °F 9.9 °F 69% 30.39 in 10.0 mi WNW 17.3 mph 24.2 mph N/A Snow Light Snow
6:35 AM 18.5 °F 6.8 °F 9.5 °F 68% 30.39 in 10.0 mi West 10.4 mph 24.2 mph N/A   Overcast
6:55 AM 18.5 °F 4.9 °F 8.4 °F 65% 30.40 in 10.0 mi West 13.8 mph 26.5 mph N/A   Overcast
7:15 AM 18.5 °F 6.1 °F 7.7 °F 63% 30.41 in 10.0 mi West 11.5 mph 25.3 mph N/A   Overcast
7:34 AM 18.5 °F 4.3 °F 6.3 °F 59% 30.41 in 10.0 mi West 15.0 mph 23.0 mph N/A   Overcast
7:55 AM 18.5 °F 3.8 °F 7.2 °F 61% 30.41 in 10.0 mi West 16.1 mph 23.0 mph N/A   Overcast
8:15 AM 18.5 °F 6.1 °F 7.0 °F 61% 30.41 in 10.0 mi West 11.5 mph 26.5 mph N/A   Overcast
8:34 AM 18.5 °F 4.3 °F 7.3 °F 62% 30.42 in 10.0 mi West 15.0 mph 24.2 mph N/A   Overcast
8:55 AM 18.5 °F 5.5 °F 7.0 °F 61% 30.42 in 10.0 mi West 12.7 mph 24.2 mph N/A   Overcast
9:15 AM 18.5 °F 4.3 °F 7.2 °F 61% 30.44 in 10.0 mi West 15.0 mph 26.5 mph N/A   Mostly Cloudy
9:34 AM 18.5 °F 4.3 °F 8.2 °F 64% 30.44 in 10.0 mi West 15.0 mph 21.9 mph N/A   Overcast
9:55 AM 18.5 °F 5.5 °F 8.1 °F 64% 30.45 in 10.0 mi West 12.7 mph 21.9 mph N/A   Overcast
10:15 AM 18.5 °F 7.5 °F 9.0 °F 66% 30.45 in 10.0 mi West 9.2 mph 25.3 mph N/A   Overcast
10:34 AM 18.5 °F 2.9 °F 8.8 °F 66% 30.46 in 10.0 mi West 18.4 mph 24.2 mph N/A   Overcast
10:55 AM 18.5 °F 6.8 °F 8.6 °F 65% 30.47 in 10.0 mi West 10.4 mph 20.7 mph N/A   Overcast
11:15 AM 18.5 °F 4.9 °F 9.1 °F 67% 30.47 in 10.0 mi West 13.8 mph 21.9 mph N/A   Overcast
11:34 AM 18.5 °F 4.9 °F 8.6 °F 65% 30.47 in 10.0 mi West 13.8 mph 20.7 mph N/A   Overcast
11:55 AM 18.5 °F 5.5 °F 8.4 °F 65% 30.48 in 10.0 mi West 12.7 mph 23.0 mph N/A   Overcast
12:15 PM 18.5 °F 3.8 °F 8.4 °F 65% 30.47 in 10.0 mi West 16.1 mph 25.3 mph N/A   Overcast
12:34 PM 18.5 °F 6.1 °F 7.9 °F 63% 30.48 in 10.0 mi West 11.5 mph 24.2 mph N/A   Overcast
12:55 PM 18.5 °F 7.5 °F 9.5 °F 68% 30.47 in 10.0 mi West 9.2 mph 23.0 mph N/A   Overcast
1:15 PM 18.5 °F 5.5 °F 8.6 °F 65% 30.48 in 10.0 mi West 12.7 mph 26.5 mph N/A Snow Light Snow
1:34 PM 18.5 °F 3.8 °F 8.4 °F 65% 30.48 in 10.0 mi West 16.1 mph 25.3 mph N/A   Overcast
1:55 PM 18.5 °F 7.5 °F 9.1 °F 67% 30.47 in 10.0 mi West 9.2 mph 18.4 mph N/A   Overcast
2:14 PM 18.5 °F 5.5 °F 8.1 °F 64% 30.47 in 10.0 mi West 12.7 mph 23.0 mph N/A   Overcast
2:35 PM 18.5 °F 4.9 °F 8.1 °F 64% 30.47 in 10.0 mi West 13.8 mph 21.9 mph N/A   Overcast
2:55 PM 18.5 °F 6.1 °F 8.2 °F 64% 30.47 in 10.0 mi West 11.5 mph 23.0 mph N/A   Overcast
3:14 PM 18.5 °F 4.9 °F 7.9 °F 63% 30.47 in 10.0 mi West 13.8 mph 19.6 mph N/A   Overcast
3:35 PM 18.5 °F 5.5 °F 7.9 °F 63% 30.48 in 10.0 mi West 12.7 mph 20.7 mph N/A   Overcast
3:55 PM 18.5 °F 5.5 °F 7.9 °F 63% 30.48 in 10.0 mi West 12.7 mph 20.7 mph N/A   Overcast
4:14 PM 18.5 °F 7.5 °F 7.3 °F 62% 30.48 in 10.0 mi West 9.2 mph 20.7 mph N/A   Overcast
4:35 PM 18.5 °F 4.3 °F 8.6 °F 65% 30.48 in 10.0 mi West 15.0 mph 20.7 mph N/A   Overcast
4:55 PM 18.5 °F 6.8 °F 6.1 °F 58% 30.48 in 10.0 mi West 10.4 mph 21.9 mph N/A   Overcast
5:14 PM 18.5 °F 7.5 °F 6.8 °F 60% 30.48 in 10.0 mi WSW 9.2 mph 19.6 mph N/A   Overcast
5:35 PM 18.5 °F 8.4 °F 7.3 °F 62% 30.48 in 10.0 mi West 8.1 mph 21.9 mph N/A   Overcast
5:55 PM 18.7 °F 5.7 °F 8.1 °F 63% 30.48 in 10.0 mi West 12.7 mph 21.9 mph N/A   Overcast
6:14 PM 18.5 °F 6.8 °F 8.2 °F 64% 30.49 in 10.0 mi West 10.4 mph 20.7 mph N/A   Overcast
6:35 PM 19.4 °F 6.6 °F 10.0 °F 67% 30.49 in 10.0 mi West 12.7 mph 21.9 mph N/A Snow Light Snow
6:55 PM 19.6 °F 7.4 °F 8.6 °F 62% 30.49 in 10.0 mi West 11.5 mph 25.3 mph N/A   Overcast
7:14 PM 19.6 °F 5.7 °F 9.1 °F 64% 30.49 in 10.0 mi WSW 15.0 mph 24.2 mph N/A   Overcast
7:35 PM 18.9 °F 6.5 °F 10.8 °F 71% 30.49 in 10.0 mi SW 11.5 mph 21.9 mph N/A   Overcast
7:55 PM 19.4 °F 6.0 °F 11.1 °F 70% 30.49 in 10.0 mi SSW 13.8 mph 21.9 mph N/A   Overcast
8:14 PM 19.4 °F 6.0 °F 12.0 °F 73% 30.48 in 10.0 mi SW 13.8 mph 21.9 mph N/A   Overcast
8:35 PM 19.4 °F 4.5 °F 11.8 °F 72% 30.48 in 10.0 mi SW 17.3 mph 23.0 mph N/A Snow Light Snow
8:55 PM 19.8 °F 6.5 °F 11.7 °F 71% 30.48 in 10.0 mi SW 13.8 mph 24.2 mph N/A   Overcast
9:15 PM 20.1 °F 8.1 °F 11.8 °F 70% 30.48 in 10.0 mi WSW 11.5 mph 21.9 mph N/A Snow Light Snow
9:35 PM 20.1 °F 7.5 °F 12.2 °F 71% 30.47 in 10.0 mi West 12.7 mph 19.6 mph N/A   Overcast
9:55 PM 19.9 °F 7.3 °F 11.7 °F 70% 30.47 in 10.0 mi WSW 12.7 mph 21.9 mph N/A   Overcast
10:15 PM 20.5 °F 7.4 °F 11.5 °F 68% 30.47 in 10.0 mi WSW 13.8 mph 20.7 mph N/A   Overcast
10:35 PM 20.8 °F 7.9 °F 11.5 °F 67% 30.47 in 10.0 mi West 13.8 mph 19.6 mph N/A   Overcast
10:55 PM 20.3 °F 6.6 °F 10.8 °F 67% 30.46 in 10.0 mi WSW 15.0 mph 23.0 mph N/A   Overcast
11:15 PM 20.7 °F 8.8 °F 10.6 °F 65% 30.46 in 10.0 mi WSW 11.5 mph 18.4 mph N/A   Overcast
11:35 PM 20.1 °F 8.1 °F 11.8 °F 70% 30.46 in 7.0 mi West 11.5 mph 18.4 mph N/A Snow Light Snow
11:55 PM 19.9 °F 10.1 °F 10.4 °F 67% 30.47 in 10.0 mi West 8.1 mph - N/A Snow Light Snow